When you browse on this site, cookies collect data to enhance your experience and personalize the content and advertising you see.
Visit our Privacy Policy to learn more. By continuing to use the site, you agree to this use of cookies and data.
  • Em Portugal
  • Lista de países
  • Para 7 dias
  • Temperatura da água
  • Mapas de satélite
  • Mapa do tempo
  • Widgets de tempo
  • user-avatar
    Iniciar Sessão

    Previsão horária em Byala

    Hoje, 17 Novembro, Sábado

    Tempo Temperatura Precipitação Vento Pressão Humidade
    00:00 -2°C° 0 mm 6 m/s 761 mmHg 81%
    01:00 -2°C° 0 mm 6 m/s 761 mmHg 81%
    02:00 -2°C° 0 mm 6 m/s 761 mmHg 82%
    03:00 -2°C° 0 mm 6 m/s 761 mmHg 82%
    04:00 -2°C° 0 mm 6 m/s 761 mmHg 83%
    05:00 -2°C° 0 mm 6 m/s 761 mmHg 84%
    06:00 -2°C° 0 mm 6 m/s 761 mmHg 84%
    07:00 -2°C° 0 mm 6 m/s 761 mmHg 85%
    08:00 -2°C° 0 mm 6 m/s 761 mmHg 85%
    09:00 -1°C° 0.1 mm 6 m/s 761 mmHg 84%
    10:00 -1°C° 0.1 mm 7 m/s 761 mmHg 83%
    11:00 0°C° 0.1 mm 7 m/s 761 mmHg 82%
    12:00 0°C° 0.2 mm 7 m/s 761 mmHg 82%
    13:00 0°C° 0.2 mm 7 m/s 761 mmHg 82%
    14:00 0°C° 0.2 mm 8 m/s 761 mmHg 83%
    15:00 0°C° 0.3 mm 8 m/s 760 mmHg 83%
    16:00 0°C° 0.3 mm 8 m/s 760 mmHg 84%
    17:00 0°C° 0.3 mm 8 m/s 760 mmHg 85%
    18:00 +1°C° 0.3 mm 8 m/s 760 mmHg 86%
    19:00 +1°C° 0.3 mm 9 m/s 760 mmHg 87%
    20:00 +1°C° 0.3 mm 9 m/s 760 mmHg 87%
    21:00 +1°C° 0.3 mm 8 m/s 760 mmHg 88%
    22:00 +1°C° 0.3 mm 8 m/s 760 mmHg 88%
    23:00 +3°C° 0.3 mm 7 m/s 760 mmHg 88%

    Amanhã, 18 Novembro, Domingo

    Tempo Temperatura Precipitação Vento Pressão Humidade
    00:00 +2°C° 0.2 mm 7 m/s 760 mmHg 88%
    01:00 +2°C° 0.2 mm 7 m/s 760 mmHg 88%
    02:00 +2°C° 0.2 mm 7 m/s 760 mmHg 88%
    03:00 +2°C° 0.3 mm 7 m/s 760 mmHg 87%
    04:00 0°C° 0.3 mm 8 m/s 759 mmHg 87%
    05:00 0°C° 0.3 mm 8 m/s 759 mmHg 87%
    06:00 0°C° 0.2 mm 8 m/s 759 mmHg 87%
    07:00 0°C° 0.2 mm 8 m/s 759 mmHg 87%
    08:00 0°C° 0.2 mm 8 m/s 759 mmHg 86%
    09:00 +2°C° 0.1 mm 7 m/s 759 mmHg 83%
    10:00 +3°C° 0.1 mm 7 m/s 759 mmHg 80%
    11:00 +3°C° 0.1 mm 7 m/s 759 mmHg 78%
    12:00 +4°C° 0 mm 7 m/s 758 mmHg 76%
    13:00 +5°C° 0 mm 7 m/s 757 mmHg 74%
    14:00 +5°C° 0 mm 6 m/s 757 mmHg 73%
    15:00 +5°C° 0 mm 6 m/s 756 mmHg 75%
    16:00 +4°C° 0 mm 6 m/s 756 mmHg 78%
    17:00 +4°C° 0 mm 6 m/s 756 mmHg 81%
    18:00 +4°C° 0 mm 6 m/s 755 mmHg 82%
    19:00 +3°C° 0 mm 6 m/s 755 mmHg 84%
    20:00 +3°C° 0 mm 6 m/s 754 mmHg 85%
    21:00 +3°C° 0.1 mm 6 m/s 754 mmHg 86%
    22:00 +3°C° 0.1 mm 6 m/s 753 mmHg 87%
    23:00 +3°C° 0.1 mm 6 m/s 753 mmHg 87%

    Depois de amanhã, 19 Novembro, Segunda-feira

    Tempo Temperatura Precipitação Vento Pressão Humidade
    00:00 +4°C° 0.6 mm 6 m/s 752 mmHg 88%
    01:00 +4°C° 0.6 mm 7 m/s 752 mmHg 88%
    02:00 +4°C° 0.6 mm 7 m/s 751 mmHg 88%
    03:00 +4°C° 1.1 mm 7 m/s 751 mmHg 89%
    04:00 +4°C° 1.1 mm 7 m/s 750 mmHg 90%
    05:00 +4°C° 1.1 mm 8 m/s 750 mmHg 91%
    06:00 +4°C° 1.3 mm 8 m/s 750 mmHg 91%
    07:00 +3°C° 1.3 mm 9 m/s 749 mmHg 91%
    08:00 +5°C° 1.3 mm 9 m/s 749 mmHg 90%
    09:00 +5°C° 0.4 mm 9 m/s 749 mmHg 90%
    10:00 +6°C° 0.4 mm 9 m/s 749 mmHg 89%
    11:00 +6°C° 0.4 mm 9 m/s 749 mmHg 88%
    12:00 +6°C° 0.2 mm 8 m/s 749 mmHg 89%
    13:00 +6°C° 0.2 mm 7 m/s 749 mmHg 89%
    14:00 +6°C° 0.2 mm 7 m/s 749 mmHg 90%
    15:00 +7°C° 0.1 mm 6 m/s 749 mmHg 90%
    16:00 +7°C° 0.1 mm 6 m/s 749 mmHg 91%
    17:00 +7°C° 0.1 mm 6 m/s 749 mmHg 91%
    18:00 +7°C° 0 mm 5 m/s 750 mmHg 92%
    19:00 +7°C° 0 mm 5 m/s 750 mmHg 92%
    20:00 +7°C° 0 mm 4 m/s 751 mmHg 92%
    21:00 +7°C° 0 mm 4 m/s 751 mmHg 92%
    22:00 +7°C° 0 mm 4 m/s 752 mmHg 92%
    23:00 +7°C° 0 mm 3 m/s 752 mmHg 92%

    20 Novembro, Terça-feira

    Tempo Temperatura Precipitação Vento Pressão Humidade
    00:00 +7°C° 0 mm 3 m/s 752 mmHg 92%
    01:00 +8°C° 0 mm 3 m/s 753 mmHg 91%
    02:00 +8°C° 0 mm 3 m/s 753 mmHg 91%
    03:00 +8°C° 0 mm 3 m/s 753 mmHg 92%
    04:00 +8°C° 0 mm 3 m/s 753 mmHg 92%
    05:00 +8°C° 0 mm 3 m/s 753 mmHg 93%
    06:00 +8°C° 0 mm 3 m/s 753 mmHg 93%
    07:00 +8°C° 0 mm 4 m/s 753 mmHg 94%
    08:00 +8°C° 0 mm 4 m/s 754 mmHg 95%
    09:00 +9°C° 0 mm 5 m/s 753 mmHg 93%
    10:00 +9°C° 0 mm 5 m/s 753 mmHg 90%
    11:00 +10°C° 0 mm 6 m/s 753 mmHg 88%
    12:00 +11°C° 0 mm 6 m/s 753 mmHg 89%
    13:00 +11°C° 0 mm 6 m/s 752 mmHg 89%
    14:00 +12°C° 0 mm 5 m/s 752 mmHg 90%
    15:00 +13°C° 0.1 mm 5 m/s 751 mmHg 92%
    16:00 +13°C° 0.1 mm 5 m/s 751 mmHg 93%
    17:00 +13°C° 0.1 mm 5 m/s 751 mmHg 95%
    18:00 +13°C° 0.1 mm 6 m/s 751 mmHg 94%
    19:00 +13°C° 0.1 mm 6 m/s 750 mmHg 94%
    20:00 +13°C° 0.1 mm 6 m/s 750 mmHg 93%
    21:00 +13°C° 0.3 mm 6 m/s 750 mmHg 92%
    22:00 +13°C° 0.3 mm 6 m/s 749 mmHg 90%
    23:00 +14°C° 0.3 mm 6 m/s 749 mmHg 88%

    21 Novembro, Quarta-feira

    Tempo Temperatura Precipitação Vento Pressão Humidade
    00:00 +14°C° 0.1 mm 6 m/s 749 mmHg 88%
    01:00 +14°C° 0.1 mm 6 m/s 748 mmHg 88%
    02:00 +14°C° 0.1 mm 6 m/s 748 mmHg 88%
    03:00 +14°C° 0.4 mm 6 m/s 747 mmHg 89%
    04:00 +14°C° 0.4 mm 6 m/s 747 mmHg 90%
    05:00 +15°C° 0.4 mm 6 m/s 747 mmHg 90%
    06:00 +15°C° 0.4 mm 6 m/s 747 mmHg 90%
    07:00 +15°C° 0.4 mm 6 m/s 747 mmHg 89%
    08:00 +15°C° 0.4 mm 7 m/s 746 mmHg 88%
    09:00 +16°C° 0.7 mm 7 m/s 746 mmHg 83%
    10:00 +17°C° 0.7 mm 7 m/s 746 mmHg 78%
    11:00 +18°C° 0.7 mm 7 m/s 746 mmHg 74%
    12:00 +20°C° 0.6 mm 6 m/s 746 mmHg 68%
    13:00 +20°C° 0.6 mm 5 m/s 746 mmHg 63%
    14:00 +20°C° 0.6 mm 5 m/s 746 mmHg 58%
    15:00 +19°C° 0.3 mm 4 m/s 746 mmHg 62%
    16:00 +18°C° 0.3 mm 4 m/s 746 mmHg 66%
    17:00 +17°C° 0.3 mm 4 m/s 747 mmHg 70%
    18:00 +15°C° 0 mm 4 m/s 747 mmHg 74%
    19:00 +14°C° 0 mm 5 m/s 747 mmHg 78%
    20:00 +13°C° 0 mm 5 m/s 748 mmHg 82%
    21:00 +12°C° 0 mm 5 m/s 748 mmHg 82%
    22:00 +12°C° 0 mm 5 m/s 749 mmHg 82%
    23:00 +12°C° 0 mm 4 m/s 749 mmHg 82%

    22 Novembro, Quinta-feira

    Tempo Temperatura Precipitação Vento Pressão Humidade
    00:00 +11°C° 0 mm 4 m/s 749 mmHg 82%
    01:00 +11°C° 0 mm 4 m/s 750 mmHg 82%
    02:00 +10°C° 0 mm 4 m/s 750 mmHg 81%
    03:00 +10°C° 0 mm 4 m/s 750 mmHg 80%
    04:00 +10°C° 0 mm 4 m/s 750 mmHg 79%
    05:00 +10°C° 0 mm 4 m/s 751 mmHg 78%
    06:00 +10°C° 0 mm 3 m/s 751 mmHg 78%
    07:00 +10°C° 0 mm 3 m/s 752 mmHg 78%
    08:00 +10°C° 0 mm 3 m/s 752 mmHg 77%
    09:00 +11°C° 0 mm 3 m/s 752 mmHg 73%
    10:00 +12°C° 0 mm 3 m/s 753 mmHg 70%
    11:00 +13°C° 0 mm 3 m/s 753 mmHg 66%
    12:00 +14°C° 0 mm 2 m/s 753 mmHg 64%
    13:00 +15°C° 0 mm 2 m/s 753 mmHg 61%
    14:00 +16°C° 0 mm 2 m/s 753 mmHg 58%
    15:00 +15°C° 0 mm 2 m/s 753 mmHg 63%
    16:00 +13°C° 0 mm 3 m/s 753 mmHg 67%
    17:00 +12°C° 0 mm 3 m/s 754 mmHg 72%
    18:00 +11°C° 0 mm 3 m/s 754 mmHg 76%
    19:00 +10°C° 0 mm 3 m/s 754 mmHg 80%
    20:00 +9°C° 0 mm 3 m/s 755 mmHg 84%
    21:00 +9°C° 0 mm 3 m/s 755 mmHg 85%
    22:00 +9°C° 0 mm 3 m/s 755 mmHg 86%
    23:00 +8°C° 0 mm 3 m/s 756 mmHg 86%
    Mostrar mais